Temp
-23 -23 -23 -23 -24 -24 -24 -24 -24 -24 -24 -24 -24 -24 -24 -24 -24 -24 -24 -24 -24 -24 -24 -24 -24 -24 -24 -24 -24 -23 -23 -23 -23 -23 -23 -23 -23 -23 -23 -24 -24 -23 -23 -23 -23 -23 -23 -23 -23 -23 -23 -23 -24 -24 -24 -24 -24 -24 -24 -24 -25 -25 -25
-23 -23 -24 -24 -24 -24 -24 -24 -24 -24 -24 -24 -24 -24 -24 -24 -24 -24 -24 -24 -24 -24 -24 -24 -24 -23 -24 -24 -24 -23 -23 -23 -23 -23 -23 -23 -24 -24 -24 -24 -24 -24 -23 -23 -23 -23 -23 -23 -24 -24 -24 -24 -24 -24 -24 -24 -24 -25 -25 -25 -25 -25 -25
-24 -24 -24 -24 -24 -24 -24 -24 -24 -24 -24 -24 -24 -24 -24 -24 -24 -24 -24 -24 -24 -24 -24 -24 -24 -24 -24 -24 -24 -24 -24 -24 -24 -24 -24 -24 -24 -24 -24 -24 -24 -24 -24 -24 -24 -24 -24 -24 -24 -24 -24 -24 -24 -24 -24 -24 -25 -25 -25 -25 -25 -25 -26
-24 -24 -24 -24 -24 -24 -24 -24 -24 -24 -24 -24 -24 -24 -24 -24 -24 -24 -24 -24 -24 -24 -24 -24 -24 -24 -24 -24 -24 -24 -24 -24 -24 -24 -24 -24 -24 -24 -24 -24 -25 -25 -25 -25 -24 -24 -24 -24 -24 -24 -24 -24 -24 -25 -25 -25 -25 -25 -26 -26 -26 -26 -26
-24 -24 -24 -24 -24 -24 -24 -24 -24 -25 -25 -25 -24 -24 -24 -24 -24 -24 -24 -24 -24 -24 -24 -24 -24 -24 -24 -24 -24 -24 -24 -24 -24 -24 -24 -24 -24 -24 -25 -25 -25 -25 -25 -25 -25 -25 -25 -25 -25 -25 -25 -25 -25 -25 -25 -25 -26 -26 -26 -26 -26 -26 -27
-24 -24 -24 -24 -24 -24 -24 -25 -25 -25 -25 -25 -25 -25 -25 -25 -25 -25 -24 -24 -24 -24 -24 -24 -24 -24 -24 -24 -24 -24 -25 -25 -25 -25 -25 -25 -25 -25 -25 -25 -25 -26 -26 -26 -26 -26 -25 -25 -25 -25 -26 -26 -26 -26 -26 -26 -26 -26 -26 -27 -27 -27 -27
-24 -24 -24 -24 -24 -24 -24 -25 -25 -25 -25 -25 -25 -25 -25 -25 -25 -25 -25 -25 -25 -25 -25 -25 -25 -25 -25 -25 -25 -25 -25 -25 -25 -26 -25 -26 -26 -26 -26 -26 -26 -26 -26 -26 -26 -26 -26 -26 -26 -26 -26 -26 -26 -26 -26 -26 -26 -27 -27 -27 -27 -27 -28
-25 -25 -25 -25 -25 -25 -25 -25 -25 -25 -25 -25 -25 -25 -25 -25 -25 -25 -25 -25 -25 -25 -25 -25 -25 -25 -25 -25 -26 -26 -26 -26 -26 -26 -26 -26 -27 -27 -27 -27 -27 -27 -27 -27 -27 -27 -27 -27 -27 -27 -27 -27 -26 -26 -26 -27 -27 -27 -28 -28 -28 -28 -28
-25 -25 -25 -25 -25 -25 -25 -25 -25 -25 -26 -26 -26 -26 -26 -26 -26 -26 -26 -26 -26 -26 -26 -26 -26 -26 -26 -26 -26 -26 -26 -27 -27 -27 -27 -27 -27 -27 -27 -27 -28 -28 -28 -28 -28 -28 -27 -27 -27 -27 -27 -27 -27 -27 -27 -28 -28 -28 -28 -28 -28 -28 -28
-26 -26 -26 -26 -26 -26 -26 -26 -26 -26 -26 -26 -26 -26 -26 -26 -26 -26 -26 -26 -26 -26 -26 -27 -27 -27 -27 -27 -27 -27 -27 -27 -27 -27 -27 -28 -28 -28 -28 -28 -28 -28 -28 -28 -28 -28 -28 -28 -28 -28 -28 -28 -28 -28 -28 -28 -28 -28 -28 -28 -28 -28 -28
-26 -26 -26 -26 -26 -26 -26 -26 -26 -26 -26 -26 -26 -27 -27 -27 -27 -27 -27 -27 -27 -27 -27 -27 -27 -27 -27 -27 -27 -27 -27 -27 -27 -28 -28 -28 -28 -28 -28 -28 -28 -28 -28 -28 -28 -28 -28 -28 -28 -28 -28 -28 -28 -28 -28 -28 -28 -28 -28 -28 -28 -28 -28
-27 -27 -27 -27 -27 -27 -27 -27 -27 -27 -27 -27 -27 -27 -27 -27 -27 -27 -27 -27 -27 -27 -27 -27 -27 -27 -27 -27 -27 -27 -28 -28 -28 -28 -28 -28 -28 -28 -28 -29 -29 -29 -29 -29 -29 -29 -29 -28 -28 -28 -28 -28 -28 -28 -29 -29 -29 -28 -28 -28 -28 -28 -28
-27 -27 -27 -27 -27 -27 -27 -27 -27 -27 -27 -27 -27 -27 -27 -27 -27 -27 -27 -27 -27 -27 -27 -27 -28 -28 -28 -28 -28 -28 -28 -28 -28 -28 -28 -28 -28 -28 -28 -29 -29 -29 -29 -29 -29 -29 -29 -29 -29 -29 -29 -28 -29 -29 -29 -29 -29 -29 -29 -28 -28 -28 -28
-27 -27 -27 -28 -28 -28 -28 -28 -28 -28 -28 -28 -27 -27 -27 -27 -27 -27 -27 -27 -27 -28 -28 -28 -28 -28 -28 -28 -28 -28 -28 -28 -28 -28 -28 -28 -28 -28 -28 -28 -28 -29 -29 -29 -29 -29 -29 -29 -29 -29 -29 -29 -29 -29 -29 -29 -29 -29 -29 -29 -28 -28 -28
-28 -28 -28 -27 -27 -27 -27 -27 -28 -28 -28 -28 -28 -28 -28 -28 -28 -28 -28 -28 -28 -28 -28 -28 -28 -28 -28 -28 -28 -28 -28 -28 -28 -28 -28 -28 -28 -28 -28 -28 -28 -28 -29 -29 -29 -29 -29 -29 -29 -29 -29 -29 -29 -29 -29 -29 -29 -29 -29 -29 -29 -29 -29
-28 -28 -28 -28 -28 -28 -28 -28 -28 -28 -28 -28 -28 -28 -28 -28 -28 -28 -28 -28 -28 -28 -28 -28 -28 -28 -28 -28 -28 -28 -28 -28 -29 -29 -29 -29 -29 -29 -28 -28 -28 -28 -29 -29 -29 -29 -29 -29 -29 -29 -29 -29 -29 -29 -29 -29 -29 -29 -29 -29 -29 -29 -29
-28 -28 -28 -28 -28 -28 -28 -28 -28 -28 -28 -28 -28 -28 -28 -28 -28 -28 -28 -28 -28 -28 -28 -28 -28 -28 -28 -28 -28 -29 -29 -29 -29 -29 -29 -29 -29 -29 -29 -28 -28 -28 -29 -29 -29 -29 -29 -29 -29 -29 -29 -30 -30 -30 -30 -30 -30 -30 -30 -29 -29 -29 -29
-28 -28 -28 -28 -28 -28 -28 -28 -28 -28 -28 -28 -28 -28 -28 -29 -29 -28 -28 -28 -29 -29 -29 -28 -28 -28 -28 -29 -29 -29 -29 -29 -29 -29 -29 -29 -29 -29 -29 -28 -29 -29 -29 -29 -29 -29 -29 -29 -29 -29 -30 -30 -30 -30 -30 -30 -30 -30 -30 -30 -30 -30 -30
-28 -28 -29 -29 -29 -29 -29 -29 -29 -29 -29 -29 -29 -29 -29 -29 -29 -29 -29 -29 -29 -29 -29 -29 -29 -29 -29 -29 -29 -29 -29 -29 -29 -29 -29 -29 -29 -29 -28 -29 -29 -29 -29 -29 -29 -29 -29 -29 -29 -29 -30 -30 -30 -30 -30 -30 -30 -30 -30 -30 -30 -30 -30
-29 -29 -29 -29 -29 -29 -29 -29 -29 -29 -29 -29 -29 -29 -29 -29 -29 -29 -29 -29 -29 -29 -29 -29 -29 -29 -29 -29 -29 -29 -29 -29 -29 -29 -29 -29 -29 -29 -29 -29 -29 -29 -29 -29 -29 -29 -30 -30 -30 -30 -30 -30 -30 -31 -31 -31 -31 -31 -31 -31 -31 -31 -31
-29 -29 -29 -29 -29 -29 -29 -29 -29 -29 -29 -29 -29 -29 -29 -30 -30 -30 -30 -30 -30 -29 -29 -29 -29 -29 -29 -29 -29 -29 -29 -29 -29 -29 -29 -29 -29 -29 -29 -29 -29 -29 -29 -30 -30 -30 -30 -30 -30 -30 -30 -31 -31 -31 -32 -32 -31 -31 -32 -32 -32 -31 -31
-29 -29 -29 -29 -29 -29 -30 -30 -30 -30 -30 -30 -30 -30 -30 -30 -30 -30 -30 -30 -30 -30 -30 -30 -30 -29 -29 -29 -29 -29 -29 -29 -29 -30 -30 -30 -30 -30 -30 -30 -30 -30 -30 -30 -30 -30 -31 -31 -31 -31 -31 -32 -32 -33 -33 -33 -32 -32 -32 -32 -32 -32 -32
-30 -30 -30 -30 -30 -30 -30 -30 -30 -30 -30 -30 -30 -30 -30 -30 -30 -30 -30 -30 -30 -30 -30 -30 -30 -30 -30 -30 -30 -30 -30 -30 -30 -30 -30 -30 -31 -31 -31 -31 -31 -31 -31 -31 -31 -31 -31 -32 -32 -32 -33 -33 -33 -34 -34 -33 -33 -33 -32 -32 -32 -32 -32
-30 -30 -30 -30 -30 -30 -30 -30 -30 -30 -30 -30 -30 -30 -30 -30 -30 -30 -30 -30 -30 -30 -30 -30 -30 -30 -30 -30 -30 -30 -30 -31 -31 -31 -31 -32 -32 -32 -32 -32 -32 -32 -32 -32 -32 -32 -32 -33 -33 -34 -34 -34 -34 -34 -34 -34 -33 -33 -33 -33 -32 -32 -32
-30 -30 -30 -30 -30 -30 -30 -31 -31 -31 -31 -31 -31 -31 -31 -31 -31 -31 -31 -31 -31 -31 -31 -31 -31 -31 -31 -31 -31 -31 -32 -32 -32 -33 -33 -33 -33 -33 -33 -33 -33 -33 -33 -33 -33 -33 -33 -34 -34 -34 -35 -35 -35 -35 -34 -34 -34 -34 -33 -33 -33 -33 -33
-31 -31 -31 -31 -31 -31 -31 -31 -31 -31 -31 -31 -31 -32 -32 -32 -32 -32 -32 -32 -32 -32 -32 -32 -32 -32 -32 -32 -33 -33 -33 -33 -33 -34 -34 -34 -34 -34 -34 -34 -34 -34 -34 -34 -34 -34 -34 -34 -35 -35 -35 -35 -35 -35 -35 -34 -34 -34 -34 -33 -33 -33 -33
-31 -31 -31 -31 -32 -32 -32 -32 -32 -33 -33 -33 -33 -33 -33 -33 -33 -33 -33 -33 -33 -33 -33 -33 -33 -34 -34 -34 -34 -34 -34 -34 -34 -34 -34 -35 -35 -35 -34 -35 -35 -35 -34 -34 -34 -35 -35 -35 -35 -36 -36 -36 -36 -35 -35 -35 -35 -34 -34 -34 -33 -33 -33
-32 -32 -33 -33 -33 -33 -33 -34 -34 -34 -34 -34 -34 -34 -35 -35 -35 -35 -35 -35 -35 -34 -34 -34 -34 -34 -34 -34 -34 -34 -34 -35 -35 -35 -35 -35 -35 -35 -35 -35 -35 -35 -35 -35 -35 -35 -36 -36 -36 -36 -36 -36 -36 -36 -35 -35 -35 -34 -34 -34 -34 -33 -33
-33 -34 -34 -34 -34 -34 -35 -35 -35 -35 -35 -36 -36 -36 -36 -36 -36 -36 -36 -36 -36 -35 -35 -35 -35 -35 -35 -35 -35 -35 -35 -35 -36 -36 -36 -36 -36 -36 -36 -36 -35 -35 -35 -36 -36 -36 -37 -37 -37 -37 -37 -36 -36 -36 -35 -35 -35 -35 -34 -34 -34 -34 -34
-35 -35 -35 -35 -36 -36 -36 -36 -36 -36 -36 -36 -37 -37 -37 -36 -36 -36 -36 -36 -37 -37 -36 -36 -36 -36 -36 -36 -36 -36 -36 -37 -37 -37 -37 -37 -37 -37 -37 -36 -36 -36 -36 -37 -37 -37 -37 -37 -37 -37 -37 -37 -36 -36 -36 -35 -35 -35 -35 -35 -34 -34 -34
-37 -37 -37 -37 -37 -37 -37 -37 -37 -37 -37 -37 -37 -37 -37 -37 -37 -37 -37 -37 -37 -37 -37 -37 -37 -37 -37 -37 -37 -37 -37 -37 -38 -37 -37 -37 -37 -37 -37 -37 -37 -37 -37 -37 -37 -37 -37 -37 -37 -37 -37 -37 -37 -36 -36 -36 -35 -35 -35 -35 -35 -35 -35
-37 -37 -37 -37 -37 -37 -37 -38 -38 -38 -38 -38 -38 -38 -38 -38 -38 -38 -38 -38 -38 -38 -38 -38 -38 -38 -38 -38 -38 -38 -38 -38 -38 -38 -38 -38 -38 -37 -37 -37 -37 -38 -37 -37 -37 -37 -37 -37 -37 -37 -37 -37 -37 -37 -36 -36 -36 -36 -35 -35 -35 -35 -35
-38 -38 -38 -38 -38 -38 -38 -38 -38 -38 -38 -38 -38 -38 -39 -39 -39 -39 -39 -39 -39 -39 -39 -38 -39 -39 -39 -39 -39 -39 -39 -38 -38 -38 -38 -38 -38 -38 -38 -38 -38 -38 -38 -38 -38 -38 -38 -38 -38 -38 -38 -37 -37 -37 -37 -36 -36 -36 -36 -36 -35 -35 -35
-39 -39 -39 -39 -39 -39 -39 -39 -39 -39 -39 -39 -39 -39 -39 -39 -39 -39 -39 -39 -39 -39 -39 -39 -39 -39 -39 -39 -39 -39 -39 -38 -38 -38 -38 -38 -38 -38 -38 -38 -38 -38 -38 -38 -38 -38 -38 -38 -38 -38 -38 -38 -37 -37 -37 -37 -36 -36 -36 -36 -36 -35 -35
-40 -40 -40 -39 -39 -39 -39 -40 -40 -40 -40 -40 -40 -40 -40 -40 -40 -40 -40 -40 -40 -40 -40 -40 -40 -40 -40 -40 -40 -39 -39 -39 -38 -38 -38 -38 -38 -38 -38 -38 -38 -38 -38 -38 -38 -38 -38 -38 -38 -38 -38 -38 -38 -37 -37 -37 -37 -37 -36 -36 -36 -36 -36
-40 -40 -40 -40 -40 -40 -40 -40 -40 -41 -41 -40 -40 -40 -40 -40 -41 -41 -41 -41 -41 -41 -41 -41 -41 -41 -40 -40 -40 -39 -39 -39 -39 -39 -39 -38 -38 -38 -38 -39 -39 -39 -39 -39 -39 -39 -39 -38 -38 -38 -38 -38 -38 -38 -37 -37 -37 -37 -37 -37 -36 -36 -36
Height
5510 5509 5508 5507 5506 5505 5503 5502 5501 5499 5498 5497 5497 5496 5495 5494 5492 5492 5493 5491 5490 5489 5487 5487 5487 5487 5486 5483 5482 5483 5483 5482 5480 5479 5478 5477 5476 5475 5474 5472 5469 5471 5475 5476 5476 5475 5473 5472 5471 5470 5471 5470 5470 5469 5468 5468 5467 5466 5466 5467 5467 5467 5467
5503 5502 5501 5500 5498 5497 5495 5494 5493 5491 5490 5489 5488 5487 5486 5485 5483 5483 5483 5482 5481 5480 5478 5477 5478 5478 5476 5473 5473 5474 5473 5472 5471 5469 5468 5467 5466 5465 5464 5462 5460 5459 5462 5464 5465 5464 5463 5462 5461 5461 5461 5460 5460 5459 5459 5459 5459 5457 5457 5457 5457 5457 5457
5494 5493 5492 5491 5490 5489 5487 5486 5484 5482 5481 5480 5479 5478 5477 5475 5474 5474 5473 5472 5472 5470 5468 5468 5469 5469 5466 5463 5463 5464 5463 5462 5461 5459 5458 5457 5456 5455 5454 5453 5450 5448 5450 5452 5453 5453 5453 5452 5451 5451 5451 5450 5449 5449 5449 5450 5450 5448 5448 5448 5447 5447 5447
5486 5485 5484 5483 5481 5480 5478 5477 5475 5473 5472 5471 5469 5468 5467 5465 5464 5463 5463 5462 5462 5460 5459 5458 5459 5459 5456 5453 5454 5454 5453 5451 5450 5449 5448 5447 5446 5444 5444 5442 5440 5439 5439 5439 5440 5442 5442 5441 5441 5441 5441 5440 5439 5438 5438 5439 5440 5438 5438 5437 5437 5438 5438
5477 5476 5475 5474 5472 5471 5469 5467 5465 5464 5462 5461 5459 5458 5456 5455 5454 5453 5452 5451 5451 5450 5448 5448 5448 5448 5445 5443 5443 5444 5442 5440 5438 5437 5437 5436 5435 5434 5433 5431 5430 5429 5428 5427 5429 5431 5431 5431 5430 5430 5431 5430 5429 5429 5428 5429 5429 5429 5428 5428 5428 5428 5428
5467 5466 5466 5465 5463 5462 5460 5458 5455 5454 5452 5450 5448 5447 5445 5443 5442 5441 5440 5440 5439 5438 5437 5437 5437 5436 5434 5432 5433 5432 5430 5428 5427 5426 5425 5425 5424 5422 5421 5420 5420 5419 5418 5417 5418 5419 5419 5420 5421 5420 5420 5420 5420 5419 5419 5419 5419 5419 5419 5419 5419 5419 5418
5456 5456 5455 5454 5452 5451 5449 5447 5445 5443 5441 5438 5436 5435 5433 5432 5430 5429 5429 5428 5427 5426 5425 5425 5425 5424 5423 5421 5421 5420 5418 5416 5415 5414 5414 5414 5412 5410 5409 5409 5409 5408 5407 5407 5407 5407 5408 5409 5410 5409 5409 5410 5409 5408 5409 5409 5409 5410 5410 5409 5408 5408 5408
5445 5444 5442 5441 5440 5438 5436 5434 5433 5430 5428 5426 5424 5422 5421 5420 5418 5417 5417 5416 5415 5414 5413 5413 5413 5412 5411 5410 5409 5408 5407 5405 5404 5402 5403 5403 5401 5399 5398 5398 5398 5397 5397 5397 5396 5397 5397 5397 5398 5399 5399 5399 5398 5398 5400 5399 5398 5399 5399 5398 5397 5398 5398
5432 5431 5430 5429 5427 5425 5423 5421 5419 5417 5414 5413 5411 5409 5408 5407 5406 5405 5404 5403 5403 5402 5402 5401 5400 5399 5399 5397 5397 5396 5395 5394 5392 5391 5391 5391 5389 5387 5387 5386 5386 5386 5386 5386 5385 5387 5387 5386 5387 5389 5389 5388 5389 5389 5389 5388 5386 5387 5389 5388 5387 5389 5389
5419 5417 5416 5415 5414 5412 5410 5408 5406 5403 5401 5399 5397 5395 5394 5393 5393 5392 5391 5391 5391 5390 5390 5389 5387 5387 5386 5385 5385 5384 5383 5382 5380 5379 5379 5378 5376 5376 5375 5375 5375 5375 5375 5374 5375 5376 5375 5374 5377 5379 5378 5378 5379 5377 5376 5376 5375 5377 5378 5377 5378 5380 5380
5406 5404 5402 5401 5400 5398 5396 5394 5391 5389 5387 5386 5383 5382 5381 5380 5380 5379 5379 5379 5378 5378 5378 5376 5374 5374 5373 5372 5372 5371 5370 5369 5368 5367 5366 5365 5364 5364 5364 5363 5363 5364 5364 5363 5364 5365 5364 5364 5368 5368 5366 5367 5367 5366 5365 5365 5365 5366 5367 5367 5368 5371 5371
5394 5392 5390 5388 5387 5385 5383 5380 5377 5374 5372 5371 5369 5367 5366 5367 5367 5366 5366 5366 5365 5365 5364 5363 5361 5361 5360 5359 5359 5358 5356 5356 5355 5354 5353 5352 5351 5351 5352 5352 5351 5351 5351 5351 5352 5352 5353 5354 5356 5356 5355 5356 5355 5354 5353 5353 5353 5355 5356 5357 5359 5361 5361
5383 5382 5379 5377 5375 5373 5370 5367 5363 5361 5358 5356 5355 5353 5351 5352 5353 5353 5353 5352 5352 5351 5350 5349 5348 5347 5347 5347 5345 5344 5343 5342 5341 5340 5339 5337 5337 5338 5339 5339 5339 5339 5339 5338 5339 5339 5342 5343 5343 5343 5344 5344 5342 5340 5339 5340 5341 5343 5345 5346 5348 5350 5349
5372 5370 5368 5365 5363 5362 5359 5355 5351 5349 5346 5343 5341 5339 5337 5337 5338 5339 5339 5339 5338 5337 5336 5336 5334 5333 5334 5334 5332 5331 5330 5328 5326 5325 5324 5323 5323 5324 5325 5325 5326 5326 5326 5325 5325 5327 5329 5330 5329 5329 5331 5331 5328 5327 5327 5328 5329 5331 5332 5334 5336 5337 5336
5360 5358 5356 5353 5351 5349 5347 5343 5339 5336 5333 5330 5328 5325 5323 5323 5324 5324 5325 5326 5325 5323 5322 5322 5321 5320 5321 5320 5319 5318 5316 5314 5312 5309 5308 5309 5309 5310 5311 5311 5313 5313 5312 5311 5312 5313 5315 5316 5315 5316 5317 5317 5316 5314 5314 5315 5316 5318 5319 5321 5323 5325 5325
5347 5345 5343 5340 5337 5335 5334 5330 5326 5323 5320 5317 5315 5312 5310 5310 5310 5310 5311 5311 5310 5309 5309 5309 5307 5306 5307 5306 5305 5304 5302 5300 5297 5294 5294 5295 5296 5296 5296 5298 5300 5299 5298 5297 5298 5299 5300 5300 5301 5302 5303 5303 5303 5302 5302 5301 5302 5305 5306 5308 5311 5313 5314
5333 5331 5329 5327 5324 5322 5320 5317 5313 5309 5307 5304 5301 5299 5297 5296 5296 5296 5297 5296 5295 5293 5294 5295 5294 5292 5292 5291 5291 5289 5287 5284 5282 5280 5280 5281 5281 5281 5281 5285 5287 5284 5283 5284 5283 5283 5285 5285 5285 5287 5288 5289 5289 5290 5289 5288 5290 5293 5293 5294 5298 5300 5301
5320 5318 5315 5313 5310 5308 5306 5304 5300 5296 5294 5291 5288 5285 5284 5283 5282 5282 5282 5281 5280 5279 5278 5278 5279 5278 5277 5277 5277 5274 5271 5269 5267 5265 5265 5265 5265 5264 5267 5272 5271 5267 5268 5270 5268 5269 5270 5270 5270 5272 5274 5274 5275 5276 5276 5275 5278 5280 5279 5281 5285 5287 5288
5307 5305 5302 5299 5296 5293 5291 5289 5286 5283 5280 5278 5274 5271 5269 5268 5267 5268 5267 5265 5265 5265 5263 5262 5263 5262 5261 5261 5261 5259 5255 5254 5253 5251 5250 5249 5247 5249 5255 5258 5252 5249 5252 5253 5252 5254 5254 5253 5256 5257 5258 5259 5261 5261 5262 5264 5265 5266 5267 5270 5273 5274 5274
5292 5291 5288 5285 5282 5279 5276 5273 5271 5269 5265 5262 5260 5257 5255 5253 5252 5252 5251 5250 5249 5249 5249 5247 5246 5246 5246 5245 5244 5242 5240 5239 5238 5237 5235 5233 5232 5236 5241 5238 5232 5232 5236 5236 5237 5239 5238 5238 5240 5241 5242 5245 5247 5247 5249 5252 5254 5254 5255 5257 5260 5261 5261
5278 5276 5274 5270 5267 5264 5261 5258 5256 5253 5250 5247 5244 5242 5239 5238 5237 5235 5235 5235 5235 5234 5233 5232 5231 5231 5230 5228 5227 5226 5225 5223 5223 5221 5219 5217 5218 5221 5221 5217 5215 5217 5219 5219 5221 5223 5222 5223 5225 5226 5228 5232 5233 5235 5237 5238 5241 5243 5243 5244 5246 5247 5248
5263 5261 5259 5256 5252 5249 5246 5242 5240 5237 5235 5232 5229 5227 5225 5223 5221 5219 5218 5219 5220 5219 5217 5216 5215 5214 5214 5212 5211 5210 5209 5207 5206 5204 5203 5203 5203 5202 5201 5199 5199 5200 5201 5203 5205 5206 5206 5208 5210 5211 5214 5217 5219 5222 5225 5225 5226 5228 5229 5230 5231 5233 5235
5248 5246 5244 5242 5239 5235 5231 5228 5225 5222 5219 5217 5215 5212 5210 5207 5205 5203 5201 5202 5203 5202 5200 5199 5198 5197 5196 5195 5194 5194 5192 5190 5188 5187 5186 5187 5185 5183 5182 5182 5182 5183 5185 5187 5189 5190 5192 5194 5196 5197 5200 5203 5205 5208 5210 5210 5211 5211 5214 5217 5218 5220 5223
5234 5232 5230 5228 5225 5221 5217 5213 5210 5206 5203 5202 5200 5197 5194 5191 5188 5186 5184 5184 5185 5184 5182 5181 5180 5179 5178 5177 5177 5177 5175 5173 5171 5170 5169 5169 5167 5166 5166 5165 5165 5168 5169 5171 5173 5175 5177 5180 5182 5184 5186 5189 5191 5192 5193 5195 5196 5197 5199 5203 5206 5209 5211
5220 5217 5215 5212 5210 5208 5203 5198 5194 5190 5187 5185 5183 5180 5178 5175 5171 5168 5166 5166 5166 5165 5163 5162 5161 5160 5160 5158 5158 5159 5158 5156 5155 5153 5152 5151 5150 5150 5151 5151 5151 5152 5153 5156 5159 5161 5163 5166 5168 5170 5172 5173 5174 5176 5178 5181 5183 5185 5187 5190 5193 5197 5200
5205 5201 5199 5196 5194 5192 5189 5184 5179 5174 5171 5168 5166 5164 5161 5158 5155 5152 5149 5148 5148 5147 5145 5144 5143 5142 5141 5140 5140 5141 5141 5140 5139 5137 5136 5135 5134 5135 5137 5138 5137 5137 5138 5141 5144 5146 5148 5152 5153 5155 5157 5158 5160 5163 5166 5169 5171 5173 5176 5178 5181 5185 5189
5188 5184 5181 5179 5177 5175 5172 5168 5163 5158 5155 5152 5149 5147 5144 5142 5139 5136 5133 5131 5131 5129 5128 5127 5126 5124 5123 5123 5122 5123 5124 5124 5123 5122 5122 5121 5120 5120 5123 5124 5123 5123 5124 5127 5130 5132 5135 5137 5139 5141 5144 5146 5149 5152 5155 5157 5158 5161 5164 5167 5169 5172 5178
5171 5168 5164 5162 5161 5159 5156 5153 5147 5142 5139 5137 5134 5131 5129 5127 5124 5121 5118 5116 5114 5113 5113 5111 5110 5108 5106 5106 5106 5107 5108 5108 5108 5107 5107 5107 5106 5107 5108 5109 5110 5111 5112 5115 5117 5120 5122 5124 5127 5130 5133 5135 5138 5141 5143 5145 5147 5150 5153 5155 5157 5162 5167
5156 5153 5149 5147 5145 5142 5140 5139 5134 5129 5125 5123 5119 5117 5115 5114 5111 5108 5105 5102 5100 5099 5098 5096 5094 5092 5091 5090 5090 5091 5092 5093 5093 5093 5093 5093 5094 5094 5094 5095 5098 5100 5102 5103 5105 5107 5110 5113 5115 5119 5122 5124 5127 5130 5132 5134 5136 5139 5142 5143 5146 5152 5156
5140 5137 5135 5133 5131 5128 5125 5124 5122 5118 5114 5111 5107 5104 5102 5100 5098 5095 5092 5089 5087 5086 5084 5082 5080 5078 5076 5076 5076 5077 5078 5079 5079 5080 5081 5081 5081 5082 5083 5084 5087 5089 5091 5092 5094 5096 5099 5102 5105 5108 5111 5114 5117 5119 5121 5123 5126 5128 5130 5133 5136 5140 5143
5125 5123 5120 5119 5119 5116 5112 5110 5108 5106 5102 5099 5096 5093 5090 5088 5085 5082 5079 5077 5076 5074 5072 5070 5068 5066 5064 5063 5063 5065 5066 5067 5068 5069 5070 5070 5071 5072 5073 5075 5077 5078 5080 5082 5084 5087 5089 5092 5095 5098 5101 5104 5107 5109 5111 5113 5116 5118 5120 5122 5125 5128 5131
5114 5111 5109 5107 5105 5104 5102 5099 5096 5093 5090 5087 5085 5082 5079 5076 5074 5070 5067 5065 5065 5063 5061 5058 5057 5055 5053 5052 5053 5054 5055 5056 5058 5059 5060 5061 5062 5063 5064 5065 5067 5068 5070 5073 5076 5078 5081 5084 5086 5089 5092 5094 5097 5099 5101 5103 5105 5107 5110 5112 5114 5117 5120
5103 5101 5099 5096 5094 5092 5091 5089 5085 5082 5079 5076 5074 5072 5069 5066 5063 5060 5057 5055 5054 5052 5050 5048 5046 5044 5043 5043 5043 5044 5046 5047 5049 5050 5051 5052 5053 5054 5055 5056 5057 5059 5062 5065 5068 5070 5073 5075 5077 5079 5082 5084 5087 5089 5091 5093 5095 5097 5099 5101 5104 5106 5108
5094 5091 5089 5087 5084 5082 5080 5078 5074 5071 5068 5066 5064 5062 5059 5057 5054 5051 5048 5046 5044 5043 5041 5039 5037 5036 5035 5035 5035 5036 5038 5039 5040 5041 5043 5044 5045 5046 5047 5048 5050 5052 5054 5057 5059 5061 5064 5066 5068 5070 5072 5075 5077 5079 5081 5084 5086 5087 5089 5091 5093 5095 5097
5088 5083 5080 5077 5075 5073 5071 5068 5064 5061 5058 5056 5054 5053 5050 5048 5045 5043 5040 5037 5035 5034 5032 5031 5029 5028 5027 5028 5028 5029 5030 5031 5032 5034 5035 5036 5038 5039 5040 5041 5043 5045 5047 5049 5051 5053 5055 5057 5059 5061 5063 5065 5067 5070 5072 5075 5076 5077 5079 5081 5083 5084 5086
5082 5078 5073 5069 5066 5064 5062 5059 5056 5052 5050 5048 5046 5044 5042 5040 5038 5035 5033 5030 5027 5026 5024 5023 5022 5021 5021 5021 5022 5023 5024 5025 5026 5027 5028 5029 5031 5032 5033 5034 5036 5038 5040 5042 5044 5046 5047 5049 5051 5053 5055 5057 5059 5061 5063 5065 5067 5068 5070 5072 5073 5075 5077
Wind_Speed
54 55 55 56 56 57 58 58 59 59 60 61 61 62 63 64 65 65 65 65 66 66 67 67 67 67 67 68 68 68 68 68 69 69 69 70 70 70 70 70 71 71 69 69 69 68 68 67 68 68 67 67 66 65 65 65 65 66 65 64 63 63 63
56 57 57 58 58 59 60 61 61 62 63 63 64 64 65 65 66 67 67 68 68 68 69 70 69 69 70 71 71 70 71 71 71 72 72 72 72 71 71 71 72 72 71 71 70 70 70 69 69 69 69 68 67 66 65 65 65 64 63 62 62 62 62
58 58 59 59 60 61 62 63 64 65 66 66 67 67 68 68 69 69 70 70 70 71 72 72 72 72 73 74 74 73 74 74 74 74 74 74 74 73 73 73 72 73 72 72 72 71 71 71 71 70 69 70 69 69 67 65 64 63 62 62 62 62 62
60 61 62 62 63 64 65 66 67 68 68 69 70 70 71 71 72 72 72 72 73 73 74 74 74 74 75 76 76 76 76 76 76 76 76 75 76 75 75 74 74 74 73 73 73 72 72 71 72 72 71 71 71 70 68 66 64 64 63 63 63 63 63
63 64 65 66 66 67 68 69 70 70 71 72 73 73 74 75 75 76 76 76 77 77 77 77 77 77 78 78 78 78 78 78 77 77 77 77 76 76 76 75 75 74 74 74 74 73 72 72 72 72 71 70 70 69 68 67 66 65 65 64 63 63 63
66 67 68 68 69 70 71 72 72 73 74 75 75 76 77 77 78 78 79 79 79 80 80 80 79 79 80 80 79 79 78 78 78 78 78 77 77 76 76 76 76 75 75 75 74 74 73 72 71 71 70 70 69 69 68 68 67 67 65 64 63 62 62
70 70 71 71 72 73 74 75 75 76 77 77 78 78 79 79 79 80 80 80 81 81 81 81 81 81 81 81 80 79 79 79 79 79 78 78 77 77 77 76 76 75 75 75 74 74 74 73 72 71 71 70 70 70 70 69 67 65 63 62 62 62 63
73 74 74 74 75 75 76 77 77 78 79 79 80 80 80 81 81 82 82 82 82 82 82 82 82 82 82 81 81 80 80 79 79 79 78 78 78 78 77 77 76 76 75 75 74 74 73 73 72 72 71 71 71 70 68 66 65 63 63 63 64 64 64
76 76 76 76 76 77 77 78 79 80 81 81 82 83 83 83 83 83 83 83 83 83 82 82 82 82 82 82 82 81 81 81 81 80 79 78 78 78 78 77 77 76 76 75 75 75 74 74 73 72 71 71 70 69 67 66 66 66 65 65 65 64 65
78 78 78 79 79 79 80 81 81 82 83 83 84 84 84 84 84 84 83 83 83 82 82 82 82 82 82 82 82 82 82 82 82 81 81 80 80 80 79 78 78 77 76 76 76 76 76 76 74 73 72 71 69 69 68 68 68 67 66 66 66 65 65
80 81 82 82 83 83 83 84 84 84 84 84 85 85 84 84 84 84 84 83 83 83 82 82 83 82 82 82 82 82 82 82 82 82 82 82 82 82 82 81 81 80 79 79 78 78 78 78 76 74 74 73 71 71 70 70 69 69 68 68 67 66 66
82 83 84 84 84 84 85 85 86 86 86 86 86 86 86 86 85 85 85 85 84 84 84 84 84 84 84 84 83 84 84 84 84 84 84 84 85 85 84 84 84 84 83 83 82 82 81 80 79 78 77 76 75 75 74 73 73 72 71 71 70 69 69
83 83 83 83 83 84 84 85 86 87 87 87 88 88 88 88 88 87 87 86 86 85 85 84 84 84 84 83 84 84 84 84 85 85 86 86 87 87 86 87 87 87 87 86 86 85 84 84 83 83 82 81 80 80 80 79 78 76 75 74 73 73 73
82 82 82 83 83 84 84 86 87 88 88 89 89 90 90 90 89 88 87 86 85 84 84 83 83 82 81 81 82 82 83 83 84 85 86 87 87 87 87 87 87 88 88 89 89 88 87 87 87 87 86 85 85 85 85 84 82 80 79 77 76 76 76
82 82 83 84 85 85 85 86 87 88 88 88 88 89 89 88 87 86 85 84 84 83 83 82 82 82 81 81 81 81 82 83 84 85 85 86 86 86 86 86 86 87 88 89 89 89 89 89 89 89 88 88 87 87 86 85 84 82 81 80 78 78 77
83 84 84 84 84 84 84 84 85 85 86 86 86 87 87 87 86 85 85 84 84 84 84 83 84 84 83 83 83 83 84 84 85 86 87 86 86 86 87 86 85 86 88 88 89 89 89 90 90 89 88 87 86 86 85 85 84 82 82 80 79 78 77
83 83 83 82 82 82 82 82 83 84 85 85 86 87 87 87 87 86 86 86 86 86 86 86 86 86 85 85 85 85 86 86 87 88 88 88 88 88 88 87 86 87 88 88 89 89 90 90 90 89 88 87 86 85 85 85 83 82 81 80 79 78 77
81 81 81 81 81 82 82 83 84 85 85 86 87 88 88 88 88 88 87 87 88 88 88 87 87 87 87 87 86 86 87 88 88 89 89 89 90 90 89 88 88 89 89 89 90 90 90 91 91 90 89 88 87 87 87 86 84 83 82 80 79 78 77
81 81 81 82 83 83 84 84 85 86 86 87 87 88 88 89 89 88 88 88 88 88 88 88 88 87 87 87 87 87 88 88 89 90 90 91 92 92 90 89 91 92 91 91 91 91 91 92 91 91 90 89 89 89 88 87 86 84 83 81 79 78 77
83 83 83 84 84 85 85 86 86 86 87 88 88 89 89 89 89 89 88 88 88 88 87 87 87 87 87 87 87 88 89 90 90 91 92 93 94 93 91 92 94 94 93 93 93 92 92 93 92 92 91 90 89 89 88 87 85 83 82 80 78 77 77
85 85 85 85 86 86 87 87 87 87 88 88 88 88 88 88 88 88 88 87 87 87 87 87 88 88 88 88 89 90 90 91 92 93 94 94 94 94 93 94 95 95 95 94 94 93 93 93 93 92 91 89 88 87 86 85 83 80 79 77 77 77 77
87 86 86 86 87 87 87 87 87 87 87 87 87 87 87 87 88 88 88 88 87 88 88 89 89 90 90 91 91 92 92 93 93 94 94 94 94 94 94 94 95 95 95 94 93 93 92 92 91 90 89 87 86 84 82 82 81 79 78 77 77 77 77
87 86 85 85 85 85 85 85 86 86 86 86 87 87 88 89 89 90 91 90 90 90 91 92 92 93 93 93 93 93 94 94 94 94 94 93 93 92 92 92 92 92 92 92 91 91 90 89 88 87 85 84 82 81 80 81 81 81 81 80 78 78 77
85 85 84 84 84 84 85 86 87 88 89 89 89 90 91 92 92 93 93 93 93 93 94 94 94 94 95 95 95 94 93 93 92 92 91 90 89 89 88 88 88 87 87 87 87 87 86 85 84 83 81 80 79 79 80 81 83 84 84 82 80 78 77
86 86 86 87 87 87 88 89 90 91 92 92 92 92 93 93 94 94 95 95 94 94 94 94 94 94 94 94 93 91 90 89 88 86 85 85 84 83 83 82 83 83 83 83 82 82 82 81 80 80 80 80 80 80 80 79 80 82 83 83 82 80 78
90 90 90 91 90 90 90 91 91 92 92 92 92 92 92 92 92 92 93 93 92 92 92 92 91 91 90 89 88 86 84 83 81 81 80 80 80 79 78 78 79 79 79 79 79 79 78 77 77 78 79 80 81 81 80 80 79 80 80 81 80 79 77
92 93 92 92 91 90 90 89 89 89 89 89 89 88 88 88 88 88 88 88 88 88 87 86 86 85 84 83 82 81 80 79 78 78 77 77 77 76 75 75 75 75 76 76 75 75 75 74 74 74 75 76 77 77 77 78 79 79 79 79 79 78 75
92 92 91 90 89 88 86 85 84 84 84 83 83 82 82 81 81 81 82 82 82 82 81 81 81 81 81 80 79 79 77 77 76 76 75 74 74 73 73 72 72 72 72 72 71 71 71 71 70 70 70 71 72 72 72 73 74 76 76 77 78 77 75
88 87 86 85 84 82 80 78 77 77 77 76 76 76 75 75 75 75 75 76 76 76 76 76 76 76 76 75 75 74 72 72 71 71 71 70 70 70 70 70 70 69 68 67 67 66 66 66 67 67 67 67 68 69 69 70 71 72 73 74 75 74 74
80 78 77 76 74 73 72 71 70 70 70 70 71 71 71 71 71 71 71 70 70 69 69 69 69 70 70 69 68 67 65 64 64 63 64 64 64 65 65 66 65 64 63 63 62 62 62 63 63 64 65 65 66 67 68 68 69 69 70 70 70 70 70
69 69 69 68 66 66 66 67 66 66 67 67 67 67 66 66 65 65 65 65 64 63 64 64 64 64 64 63 62 60 58 57 56 56 57 58 59 59 60 60 59 59 60 60 59 59 60 60 61 62 63 64 64 65 66 67 68 68 69 69 68 68 68
64 64 65 64 64 63 63 63 63 63 63 63 62 62 62 61 61 61 61 61 60 59 59 59 59 58 57 56 54 53 51 51 50 51 52 53 54 55 55 56 56 57 57 57 56 56 56 57 58 59 61 62 63 63 64 64 65 66 67 67 68 68 68
62 62 62 61 62 61 61 60 60 60 60 60 59 58 58 57 57 57 57 56 56 55 55 54 53 52 51 50 48 47 47 47 47 48 49 50 51 51 52 53 53 54 53 53 53 53 53 54 55 57 58 60 61 62 62 62 62 63 63 64 64 65 65
58 59 59 59 59 59 58 58 57 57 57 56 55 54 53 52 51 52 52 52 52 51 51 49 48 47 45 45 44 44 44 44 45 46 46 47 48 49 49 50 51 51 50 50 50 50 50 51 52 54 55 57 59 60 61 62 62 62 63 62 62 63 63
53 55 56 57 57 56 55 54 53 53 52 51 49 48 47 47 46 47 47 48 48 48 46 45 43 42 41 41 41 41 41 42 42 43 43 44 45 45 46 47 48 48 48 47 47 47 48 48 49 50 52 53 55 56 58 59 60 60 61 61 62 62 62
50 51 52 53 53 52 50 49 48 47 46 45 44 43 42 42 42 42 43 44 44 43 42 40 39 38 38 38 38 38 38 39 39 40 40 41 41 42 43 44 45 45 45 45 45 45 45 45 46 47 48 49 50 51 52 54 55 56 57 58 59 59 60
Wind_Direction
273 273 273 273 273 273 272 272 272 272 272 272 273 273 273 273 274 275 275 274 275 275 275 275 276 276 277 277 277 278 278 278 278 278 278 278 278 278 278 278 278 278 278 277 276 276 275 275 275 275 275 275 274 274 274 273 273 274 274 273 272 271 271
272 272 272 272 272 272 272 272 272 272 272 273 273 273 273 274 274 275 275 275 275 275 276 276 277 278 278 278 279 279 279 279 279 279 279 279 279 279 279 278 278 278 278 277 277 276 276 275 275 275 275 275 274 274 273 272 272 273 273 272 271 270 270
272 272 271 271 272 272 272 272 272 273 273 273 273 274 274 275 275 275 276 276 276 276 277 277 277 278 278 279 279 279 279 279 279 279 279 279 279 279 279 278 278 278 278 278 277 276 276 276 275 275 275 275 274 274 273 273 273 272 272 271 270 270 269
270 270 271 271 272 272 272 273 273 273 274 274 274 274 275 275 276 276 276 277 277 277 277 278 278 278 279 279 279 279 279 279 279 279 279 278 278 278 278 278 277 277 277 277 277 276 276 275 275 275 275 275 275 275 275 274 273 273 272 271 270 270 269
270 270 270 271 272 272 272 273 273 273 273 274 274 274 274 275 275 275 276 276 277 277 277 278 278 278 278 279 279 279 279 279 278 278 278 277 277 277 277 276 276 276 276 276 276 276 275 275 275 275 275 274 274 274 274 273 272 271 270 270 270 270 270
272 272 272 272 273 273 273 273 273 273 274 274 274 274 274 275 275 275 276 276 276 277 277 277 278 278 278 278 278 278 278 277 277 277 276 276 276 275 275 275 275 275 275 275 275 275 274 274 274 273 273 272 271 271 271 271 270 270 270 271 271 270 270
275 275 275 275 275 275 274 274 274 275 275 275 275 275 275 276 276 276 276 276 277 277 277 277 277 277 277 277 277 277 276 276 276 276 275 275 275 274 274 274 274 274 273 274 274 273 274 273 273 272 272 271 270 270 270 270 271 271 271 271 270 269 268
277 277 277 277 277 276 276 276 276 276 276 276 276 276 276 276 276 276 276 277 277 277 277 277 277 277 277 276 276 276 275 275 275 275 275 275 274 274 273 273 273 273 273 272 272 272 272 272 271 271 271 271 270 270 270 270 269 269 268 267 267 267 267
278 278 278 278 278 278 277 277 277 277 277 277 277 277 277 277 276 276 276 276 276 276 276 276 276 276 276 275 275 275 275 275 275 274 274 273 273 272 272 272 272 272 272 271 271 271 271 270 270 270 270 270 270 270 269 268 267 267 266 266 266 266 267
281 281 281 280 280 280 279 279 278 278 278 278 277 277 277 277 277 276 276 276 276 276 276 276 275 275 274 274 274 274 274 274 273 273 273 272 272 271 271 270 270 270 270 270 270 270 269 269 269 269 269 268 268 268 267 267 267 267 267 267 267 267 267
283 283 283 282 282 282 281 281 280 279 279 278 278 277 277 277 276 276 276 276 276 276 275 275 275 274 274 274 273 273 273 272 272 272 271 271 270 270 269 269 269 268 268 268 268 268 268 268 268 268 268 267 267 267 267 267 268 268 268 268 268 268 268
282 283 283 282 282 282 282 282 281 281 280 280 279 279 278 278 277 277 277 277 276 276 275 275 274 274 274 273 273 273 272 272 271 271 270 269 269 268 268 268 268 268 267 267 267 266 266 267 267 267 267 267 267 267 267 267 267 267 268 268 269 268 268
281 281 281 281 281 281 281 281 281 281 280 280 280 279 279 278 278 278 277 277 276 276 275 274 274 273 273 273 272 272 271 271 271 270 269 269 268 268 267 267 267 266 266 266 266 266 266 266 266 266 267 267 267 267 267 267 267 267 267 267 268 268 267
280 280 280 280 280 280 279 279 279 279 279 278 278 278 277 277 277 276 276 276 275 275 274 274 273 272 272 272 271 271 271 270 270 269 268 268 268 268 267 267 266 266 266 266 265 265 265 265 265 265 266 266 267 267 267 267 267 267 267 267 267 267 266
280 280 279 279 279 278 278 278 278 277 277 277 277 277 277 276 276 276 275 275 275 274 274 273 273 272 272 271 271 270 270 270 269 269 268 268 268 268 267 267 267 267 266 266 266 265 265 265 264 264 265 265 265 266 266 266 266 266 266 267 267 266 265
280 279 279 279 278 278 278 278 277 277 277 277 277 276 276 276 276 276 276 275 275 274 274 273 273 273 272 272 271 271 270 269 269 269 268 268 268 267 267 267 267 266 266 266 266 265 265 264 264 264 264 264 264 264 264 264 264 265 265 265 265 264 263
280 280 280 279 279 278 278 278 277 277 277 277 277 276 276 276 276 276 276 275 275 274 274 273 273 273 272 272 271 271 270 270 269 269 269 269 268 268 267 267 267 266 266 265 265 265 264 264 263 263 262 262 262 262 262 262 262 262 263 262 262 262 262
281 280 280 280 279 279 278 278 277 277 277 277 276 276 276 276 276 276 275 275 274 274 274 273 273 272 272 271 271 271 270 270 270 270 270 270 269 269 268 268 268 267 266 265 264 264 263 263 263 262 261 260 260 259 259 260 260 260 260 260 261 261 261
281 281 281 280 280 279 279 278 278 278 277 277 277 276 276 276 276 275 275 275 274 274 274 274 273 273 272 272 271 271 271 270 270 271 271 270 270 270 270 270 268 267 267 266 264 264 263 263 262 261 260 259 258 258 258 259 259 259 259 259 259 260 260
283 282 282 281 281 281 280 280 279 279 278 278 277 277 277 276 276 276 275 275 275 274 274 274 273 273 273 272 272 271 271 271 271 271 271 270 270 271 270 269 268 267 267 266 265 264 263 263 262 261 260 259 258 258 258 258 258 258 258 258 258 259 259
284 283 283 283 282 282 281 281 280 280 279 279 278 278 277 277 277 276 276 275 275 275 274 274 273 273 273 273 272 272 272 271 271 271 271 270 271 270 269 268 267 267 266 266 265 264 263 263 262 261 260 259 258 257 257 256 256 256 256 257 257 258 258
284 284 283 283 283 282 282 281 281 280 280 279 279 278 278 278 277 277 276 276 275 275 275 274 274 274 273 273 273 273 272 272 272 271 271 270 270 269 268 267 267 266 266 265 265 264 263 262 262 261 260 259 257 256 255 255 255 254 253 254 255 256 256
284 284 284 283 283 283 282 282 281 281 280 280 279 279 279 278 278 277 277 277 276 276 275 275 275 274 274 273 273 273 273 272 272 271 271 270 269 268 268 267 266 265 265 264 264 263 262 262 261 260 259 257 256 254 253 252 252 252 251 251 252 254 255
285 284 284 283 283 283 282 282 281 281 281 280 280 279 279 279 278 278 278 277 277 277 276 276 275 275 274 274 273 273 273 272 271 271 270 269 268 268 267 266 266 265 264 263 263 262 261 260 259 258 256 254 253 253 253 252 251 251 251 251 251 252 254
285 284 284 283 283 282 282 281 281 281 280 280 280 279 279 279 279 278 278 278 278 277 277 276 276 275 275 274 274 273 272 271 271 270 269 268 267 266 266 265 265 264 263 263 262 261 260 259 257 256 254 252 250 250 251 252 252 252 253 253 252 253 253
284 284 283 283 282 282 281 281 281 281 280 280 280 280 280 279 279 279 279 279 278 278 277 277 276 275 275 274 273 272 271 270 269 268 267 267 266 266 265 265 264 264 263 262 261 260 259 257 256 254 252 251 250 250 250 251 252 253 253 254 254 254 254
284 284 283 283 283 283 282 282 282 282 282 281 281 281 281 281 280 280 279 279 279 278 277 277 276 275 274 273 272 271 270 269 268 267 266 265 265 265 264 264 263 263 262 262 261 260 258 257 256 255 253 252 252 252 252 253 253 253 253 254 254 254 254
285 285 285 285 284 284 284 284 283 283 283 282 282 282 281 281 281 280 280 280 279 278 278 277 276 276 274 273 272 271 269 268 267 266 265 264 264 264 263 262 262 262 262 261 260 259 257 256 255 254 253 253 252 253 253 254 254 254 254 254 254 254 254
286 286 286 286 285 285 284 284 284 283 283 283 283 282 282 281 281 280 280 280 280 279 279 278 277 276 275 274 272 270 269 267 265 264 263 262 262 262 261 261 261 261 260 259 258 257 256 255 254 253 252 252 252 252 253 254 255 255 254 254 253 253 253
288 287 286 286 286 286 285 285 284 283 283 283 283 283 283 282 282 281 281 280 280 280 280 279 278 277 276 274 272 270 268 266 264 263 262 262 261 261 261 261 261 260 258 257 256 255 254 254 253 252 251 250 251 252 252 253 254 254 255 255 254 254 254
290 289 288 288 287 287 287 286 285 285 284 284 284 284 284 284 283 283 282 282 281 281 281 281 280 278 276 274 271 269 266 264 263 262 261 261 260 260 260 260 259 258 257 256 255 254 253 252 252 251 250 250 250 251 252 253 254 255 256 256 257 256 256
291 291 290 290 289 288 288 287 287 287 286 286 286 286 285 285 285 284 284 283 283 283 283 283 281 279 276 273 270 267 264 262 261 260 260 260 259 259 259 258 258 257 257 256 256 255 254 253 252 251 250 250 250 251 252 253 254 255 256 257 257 258 258
292 291 291 291 290 290 290 289 289 289 288 288 287 287 287 287 286 286 285 285 286 286 285 284 282 279 275 271 268 265 262 260 260 259 259 258 258 258 258 257 257 257 257 257 256 255 253 252 251 250 250 250 250 251 252 253 254 254 255 256 256 257 257
293 292 292 292 292 292 292 292 291 290 290 289 289 289 288 288 288 287 287 287 287 287 287 285 282 278 273 269 266 263 260 259 258 258 258 258 258 257 257 257 257 257 256 255 255 254 253 252 251 250 249 249 249 250 250 251 252 253 254 254 255 255 255
293 294 294 294 294 294 294 294 293 292 292 292 291 291 290 289 289 288 288 289 289 289 288 285 281 276 272 267 264 262 260 259 258 258 258 258 257 257 257 256 256 256 255 254 254 254 253 252 252 252 251 251 250 250 250 251 251 252 253 254 254 254 255
294 295 296 296 296 297 296 296 295 294 293 293 293 292 291 290 290 290 290 291 291 290 288 285 280 276 271 267 264 261 260 259 259 258 258 258 257 257 256 256 255 255 254 254 254 254 254 253 253 253 253 253 252 252 252 252 252 252 253 253 254 254 254